Welcome to the New NWS' Forecast!
Most changes are behind the scenes, but click here for differences you might notice.
Latest weather observations around

Chicago, Chicago-O'Hare International Airport (KORD)

Using English Units (Switch to International System of Units)
Date/ Time (CDT) Wind (mph) Vis. (mi) Weather Sky Cond. Temp (°F) Rel. Humidity Wind Chill (°F) Heat Index (°F) Pressure Precip. (in)
Air Dwpt 6 hour Altimeter (inHg) Sea level (inHg) 1 hr 3 hr 6 hr
Max Min
Sep 19 05:51 N 6 10 Cloudy FEW022 BKN110 OVC130 66 64     93%     29.94 29.93 0    
Sep 19 04:51 N 6 9 Light Rain FEW022 BKN110 OVC130 66 64     93%     29.93 29.91 0    
Sep 19 03:51 NNE 6 10 Light Rain FEW022 OVC100 67 64     90%     29.94 29.92 0 0  
Sep 19 03:38 Calm 9 Light Rain FEW022 BKN100 OVC110 67 64     90%     29.94   0    
Sep 19 03:13 W 3 9 Light Rain BKN022 BKN050 OVC110 66 64     93%     29.94   0    
Sep 19 02:51 N 3 8 Light Rain SCT022 BKN055 OVC100 67 63     87%     29.94 29.93 0    
Sep 19 01:51 NE 6 10 Light Rain SCT100 OVC120 67 63     87%     29.95 29.94 0    
Sep 19 00:51 NNE 8 10 Cloudy SCT090 BKN180 OVC250 67 61     81%     29.96 29.95      
Sep 18 23:51 ENE 7 10 Cloudy SCT045 BKN080 BKN170 OVC250 67 59     76%     29.98 29.96      
Sep 18 22:51 ENE 9 10 Cloudy FEW075 BKN170 OVC250 66 59     78%     30 29.98      
Sep 18 21:51 ENE 10 10 Cloudy SCT075 BKN180 OVC250 67 58     73%     30 29.99      
Sep 18 20:51 ENE 9 10 Mostly Cloudy BKN070 BKN250 67 57     71%     30.01 30      
Sep 18 19:51 ENE 9 10 Mostly Cloudy SCT075 BKN110 BKN250 67 56     68%     30.01 30.01      
Sep 18 18:51 ENE 9 10 Clear   68 57     68%     30.01 30      
Sep 18 17:51 ENE 10 10 Mostly Cloudy FEW200 BKN250 70 54     57%     30.01 30.01      
Sep 18 16:51 ENE 10 10 Mostly Cloudy FEW030 FEW170 BKN250 73 53     50%   72 30.01 30      
Sep 18 15:51 ENE 8 10 Partly Cloudy FEW030 FEW170 SCT250 74 54     50%   73 30.03 30.02      
Sep 18 14:51 ENE 7 10 Partly Cloudy FEW030 FEW150 SCT250 75 52     45%   74 30.05 30.04      
Sep 18 13:51 ENE 11 10 Partly Cloudy FEW025 SCT250 76 51     42%   75 30.06 30.04      
Sep 18 12:51 E 9 10 Partly Cloudy FEW040 SCT250 76 54     47%   75 30.08 30.07      
Sep 18 11:51 E 6 10 Partly Cloudy FEW150 SCT250 74 51     45%   73 30.1 30.09      
Sep 18 10:51 ENE 3 10 Partly Cloudy FEW150 SCT250 73 52     48%   72 30.11 30.1      
Sep 18 09:51 ENE 7 10 Mostly Clear FEW150 FEW250 70 54     57%     30.11 30.1      
Sep 18 08:51 NNE 5 10 Mostly Clear FEW150 FEW250 66 55     68%     30.11 30.1      
Sep 18 07:51 N 7 10 Partly Cloudy FEW150 SCT250 61 52     72%     30.12 30.11      
Sep 18 03:51 N 5 10 Mostly Clear FEW250 59 52     78%     30.09 30.08      
Sep 18 02:51 N 5 10 Mostly Clear FEW250 61 53     75%     30.09 30.08      
Sep 18 01:51 N 5 10 Partly Cloudy SCT250 62 54     75%     30.1 30.09      
Sep 18 00:51 NNE 3 10 Partly Cloudy SCT250 63 55     75%     30.12 30.1      
Sep 17 23:51 N 7 10 Partly Cloudy FEW150 SCT250 64 55     73%     30.12 30.11      
Sep 17 22:51 N 5 10 Mostly Clear FEW150 FEW250 65 56     73%     30.12 30.11      
Sep 17 21:51 NNW 10 10 Mostly Clear FEW150 FEW250 68 57     68%     30.11 30.1      
Sep 17 20:51 NNW 8 10 Partly Cloudy FEW080 FEW150 SCT250 71 60     68%   71 30.1 30.09      
Sep 17 19:51 NW 9 10 Mostly Cloudy FEW080 SCT200 BKN250 73 61     66%   73 30.07 30.06      
Sep 17 18:51 NNW 13 10 Mostly Cloudy FEW045 FEW090 SCT200 BKN250 76 64     67%   76 30.05 30.04      
Sep 17 17:51 NW 13 10 Mostly Cloudy FEW045 FEW090 BKN250 79 63     58%   79 30.04 30.02      
Sep 17 16:51 NW 10 10 Mostly Cloudy FEW045 FEW070 SCT150 BKN250 82 64     55%   84 30.03 30.02      
Sep 17 15:51 WNW 10 10 Cloudy FEW049 SCT070 BKN150 OVC250 83 65     55%   85 30.02 30      
Sep 17 14:51 W 10 10 Cloudy FEW060 SCT085 BKN100 OVC150 85 60     43%   85 30.02 30      
Sep 17 13:51 WSW 6 10 Cloudy FEW043 BKN090 OVC140 83 63     51%   84 30.03 30.01      
Sep 17 12:51 W 13 10 Mostly Cloudy SCT043 BKN140 85 63     48%   86 30.04 30.02      
Sep 17 11:51 6 10 Partly Cloudy FEW065 SCT140 SCT250 83 63     51%   84 30.03 30.01      
Sep 17 10:51 WSW 6 10 Clear CLR 80 63     56%   81 30.04 30.02      
Sep 17 09:51 WSW 3 9 Mostly Cloudy FEW090 BKN250 76 63     64%   76 30.05 30.03      
Sep 17 08:51 W 7 10 Mostly Cloudy FEW075 SCT090 BKN250 72 63     73%   72 30.06 30.04      
Sep 17 07:51 SW 5 10 Mostly Cloudy SCT075 BKN090 BKN250 71 62     73%   71 30.05 30.04      
Sep 17 06:51 S 6 9 Mostly Cloudy SCT065 BKN250 69 62     78%     30.05 30.04      
Sep 17 05:51 S 5 10 Partly Cloudy SCT065 SCT250 69 62     78%     30.03 30.01      
Sep 17 03:51 S 7 10 Partly Cloudy FEW065 SCT250 70 61     73%     30.01 30      
Sep 17 01:51 S 9 10 Partly Cloudy SCT060 SCT250 74 61     64%   74 30.01 29.99      
Sep 17 00:51 SSE 6 10 Mostly Cloudy BKN065 73 61     66%   73 30.03 30.01      
Sep 16 23:51 S 6 10 Mostly Clear FEW250 73 60     64%   73 30.04 30.02      
Sep 16 22:51 S 6 10 Mostly Clear FEW250 74 61     64%   74 30.04 30.02      
Sep 16 21:51 S 9 10 Clear CLR 77 61     58%   77 30.04 30.02      
Sep 16 20:51 SSE 8 10 Clear CLR 78 61     56%   78 30.02 30.01      
Sep 16 19:51 SSE 9 10 Mostly Clear FEW060 80 60     51%   81 30.01 30      
Sep 16 18:51 S 9 10 Mostly Clear FEW060 82 59     46%   82 30.01 30      
Sep 16 17:51 S 14 10 Mostly Clear FEW060 85 59     42%   85 30.01 29.99      
Sep 16 16:51 S 10 10 Partly Cloudy SCT060 86 59     40%   85 30.02 30.01      
Sep 16 15:51 S 11 10 Partly Cloudy SCT060 SCT250 86 59     40%   85 30.03 30.01      
Sep 16 14:51 SSW 11 10 Partly Cloudy SCT060 SCT250 87 60     40%   87 30.04 30.03      
Sep 16 13:51 S 14 10 Partly Cloudy SCT050 SCT250 86 60     42%   86 30.05 30.03      
Sep 16 12:51 SSW 14 10 Partly Cloudy SCT045 SCT055 SCT250 86 60     42%   86 30.06 30.04      
Sep 16 11:51 S 8 10 Partly Cloudy SCT045 SCT250 84 62     48%   85 30.08 30.06      
Sep 16 10:51 SSW 9 10 Mostly Clear FEW250 82 63     53%   83 30.1 30.08      
Sep 16 09:51 SW 7 10 Mostly Clear FEW250 78 63     60%   78 30.11 30.09      
Sep 16 08:51 SW 7 10 Mostly Clear FEW250 73 62     68%   73 30.1 30.09      
Sep 16 07:51 S 6 10 Mostly Clear FEW250 68 62     81%     30.08 30.07      
Sep 16 06:51 S 3 10 Partly Cloudy SCT250 65 61     87%     30.07 30.06      
Sep 16 05:51 S 3 10 Mostly Clear FEW250 66 61     84%     30.06 30.04      
Sep 16 04:51 S 5 10 Clear CLR 66 61     84%     30.05 30.03      
Sep 16 03:51 S 8 10 Clear CLR 68 61     78%     30.03 30.02      
Jun 11 22:51 SSW 17 10 Clear CLR 84 58     41%   83 29.91 29.89      
Jun 11 14:51 SSW 13 10 Clear   91 61     37%   91 29.91 29.89      
Jun 10 09:51 SW 13 10 Mostly Cloudy BKN250 77 57     50%   77 29.87 29.86      
Jun 09 22:51 E 6 10 Mostly Clear FEW075 67 55     66%     29.83 29.81      
Jun 09 15:51 ENE 13 10 Clear   83 57     41%   82 29.76 29.75      
Jun 08 07:51 SW 5 10 Clear   67 46     47%     30.05 30.03